| time (UTC) | temp F | wind direction | speed knots | gust knots | rain 1hr in | rain 24hr in | rain mn in | humidity % | barometer mb |
| 20260503193042 | 61 | 253 | 6.1 | 18.2 | 0.01 | 0.01 | 0.01 | 44 | 1010.1 |
| 20260503191535 | 61 | 262 | 8.7 | 18.2 | 0.01 | 0.01 | 0.01 | 42 | 1010.3 |
| 20260503190036 | 62 | 236 | 6.1 | 25.2 | 0.01 | 0.01 | 0.01 | 42 | 1010.6 |
| 20260503184535 | 62 | 259 | 8.7 | 20.0 | 0.01 | 0.01 | 0.01 | 43 | 1010.5 |
| 20260503183043 | 60 | 249 | 7.8 | 25.2 | 0.00 | 0.00 | 0.00 | 43 | 1010.8 |
| 20260503181532 | 61 | 43 | 9.6 | 20.9 | 0.00 | 0.00 | 0.00 | 41 | 1010.9 |
| 20260503180041 | 61 | 274 | 11.3 | 29.5 | 0.00 | 0.00 | 0.00 | 41 | 1011.1 |
| 20260503174537 | 59 | 233 | 6.1 | 18.2 | 0.00 | 0.00 | 0.00 | 46 | 1011.4 |
| 20260503173035 | 58 | 230 | 5.2 | 18.2 | 0.00 | 0.00 | 0.00 | 46 | 1011.6 |
| 20260503171536 | 58 | 279 | 6.1 | 19.1 | 0.00 | 0.00 | 0.00 | 47 | 1012.0 |
| 20260503081535 | 35 | 219 | 0.9 | 2.6 | 0.00 | 0.00 | 0.00 | 70 | 1014.5 |
| 20260503071536 | 33 | 0 | 0.0 | 1.7 | 0.00 | 0.00 | 0.00 | 74 | 1014.5 |
| 20260503054540 | 35 | 0 | 0.0 | 0.9 | 0.00 | 0.00 | 0.00 | 72 | 1015.3 |
| 20260503053036 | 35 | 0 | 0.0 | 0.9 | 0.00 | 0.00 | 0.00 | 73 | 1015.3 |
| 20260503051534 | 35 | 273 | 0.0 | 0.9 | 0.00 | 0.00 | 0.00 | 73 | 1015.3 |
| 20260503050032 | 35 | 0 | 0.0 | 1.7 | 0.00 | 0.00 | 0.00 | 72 | 1015.4 |
| 20260503044540 | 36 | 221 | 0.0 | 1.7 | 0.00 | 0.00 | 0.00 | 71 | 1015.5 |
| 20260503043033 | 35 | 0 | 0.0 | 0.9 | 0.00 | 0.00 | 0.00 | 73 | 1015.4 |
| 20260503041534 | 35 | 0 | 0.0 | 0.9 | 0.00 | 0.00 | 0.00 | 74 | 1015.6 |
| 20260503040038 | 34 | 0 | 0.0 | 0.9 | 0.00 | 0.00 | 0.00 | 74 | 1015.6 |
| 20260503034534 | 34 | 0 | 0.0 | 0.0 | 0.00 | 0.00 | 0.00 | 75 | 1015.7 |
| 20260503033046 | 35 | 0 | 0.0 | 0.0 | 0.00 | 0.00 | 0.00 | 73 | 1015.6 |
| 20260503031540 | 35 | 0 | 0.0 | 0.0 | 0.00 | 0.00 | 0.00 | 74 | 1015.7 |
| 20260503030039 | 35 | 0 | 0.0 | 0.0 | 0.00 | 0.00 | 0.00 | 73 | 1015.9 |
| 20260503024537 | 36 | 0 | 0.0 | 0.9 | 0.00 | 0.00 | 0.00 | 73 | 1015.9 |
| 20260503023041 | 36 | 0 | 0.0 | 0.0 | 0.00 | 0.00 | 0.00 | 70 | 1016.0 |
| 20260503021540 | 37 | 0 | 0.0 | 0.9 | 0.00 | 0.00 | 0.00 | 71 | 1016.0 |
| 20260503020040 | 37 | 0 | 0.0 | 0.9 | 0.00 | 0.00 | 0.00 | 70 | 1016.0 |
| 20260503014542 | 38 | 0 | 0.0 | 0.9 | 0.00 | 0.00 | 0.00 | 68 | 1015.9 |
| 20260503013047 | 39 | 0 | 0.0 | 0.9 | 0.00 | 0.00 | 0.00 | 66 | 1015.7 |
| 20260503011539 | 40 | 0 | 0.0 | 0.0 | 0.00 | 0.00 | 0.00 | 63 | 1015.7 |
| 20260503010047 | 41 | 0 | 0.0 | 0.0 | 0.00 | 0.00 | 0.00 | 62 | 1015.6 |
| 20260503004533 | 43 | 0 | 0.0 | 0.9 | 0.00 | 0.00 | 0.00 | 58 | 1015.5 |
| 20260503003038 | 44 | 262 | 0.0 | 0.9 | 0.00 | 0.00 | 0.00 | 56 | 1015.6 |
| 20260503001538 | 45 | 0 | 0.0 | 0.9 | 0.00 | 0.00 | 0.00 | 54 | 1015.4 |
| 20260503000037 | 46 | 259 | 0.9 | 4.3 | 0.00 | 0.00 | 0.00 | 51 | 1015.4 |
| 20260502234539 | 47 | 300 | 0.9 | 5.2 | 0.00 | 0.00 | 0.00 | 51 | 1015.6 |
| 20260502233043 | 46 | 238 | 2.6 | 6.1 | 0.00 | 0.00 | 0.00 | 50 | 1015.7 |
| 20260502231533 | 46 | 218 | 1.7 | 6.1 | 0.00 | 0.00 | 0.00 | 50 | 1015.7 |
| 20260502230040 | 46 | 311 | 2.6 | 8.7 | 0.00 | 0.00 | 0.00 | 49 | 1015.8 |
| 20260502224541 | 47 | 254 | 2.6 | 6.1 | 0.00 | 0.00 | 0.00 | 48 | 1015.9 |
| 20260502223038 | 47 | 252 | 1.7 | 5.2 | 0.00 | 0.00 | 0.00 | 49 | 1015.9 |
| 20260502221536 | 47 | 356 | 2.6 | 7.8 | 0.00 | 0.00 | 0.00 | 48 | 1015.6 |
| 20260502220035 | 46 | 335 | 4.3 | 10.4 | 0.00 | 0.00 | 0.00 | 48 | 1015.8 |
| 20260502214537 | 46 | 287 | 4.3 | 9.6 | 0.00 | 0.00 | 0.00 | 47 | 1015.9 |
| 20260502213032 | 47 | 258 | 4.3 | 7.8 | 0.00 | 0.00 | 0.00 | 47 | 1015.8 |
| 20260502211537 | 47 | 297 | 2.6 | 9.6 | 0.00 | 0.00 | 0.00 | 48 | 1015.9 |
| 20260502210047 | 46 | 318 | 4.3 | 9.6 | 0.00 | 0.00 | 0.00 | 47 | 1016.0 |
| 20260502204536 | 46 | 308 | 3.5 | 9.6 | 0.00 | 0.00 | 0.00 | 48 | 1016.0 |
| 20260502203036 | 46 | 314 | 4.3 | 7.8 | 0.00 | 0.00 | 0.00 | 46 | 1016.1 |
| 20260502201532 | 46 | 315 | 3.5 | 10.4 | 0.00 | 0.00 | 0.00 | 48 | 1016.3 |
| 20260502200042 | 46 | 232 | 5.2 | 8.7 | 0.00 | 0.00 | 0.00 | 48 | 1016.5 |
| 20260502194540 | 46 | 253 | 2.6 | 12.2 | 0.00 | 0.00 | 0.00 | 48 | 1016.6 |